Weather Service Report


125 
ASUS41 KAKQ 040015
RWRAKQ

REGIONAL WEATHER ROUNDUP
NATIONAL WEATHER SERVICE WAKEFIELD VA
700 PM EST SAT DEC 03 2016

Note: "fair" indicates few or no clouds below 12,000 feet with no
significant weather and/or obstructions to visibility. * = Denotes
station may not report precipitation (e.g., rain,snow,etc.),
thunder or fog.

VAZ042-051-052>054-056-040100-
NORTHERN VIRGINIA
  
CITY           SKY/WX    TMP DP  RH WIND       PRES   REMARKS
WASH NATIONAL  CLOUDY    44  29  55 NW12G22   30.26R                  
DULLES         CLOUDY    41  27  57 W9        30.26R                  
FORT BELVOIR   PTCLDY    42  28  57 NW14      30.25R                  
QUANTICO       MOCLDY    43  27  53 N16G25    30.27S                  
FREDERICKSBRG* CLOUDY    43  31  60 N10       30.25R                  
STAFFORD*      CLOUDY    40  28  62 N9        30.30R                  
WARRENTON      MOCLDY    41  24  50 N12G21    30.26R                  
CULPEPER*      CLOUDY    41  29  62 N15       30.26S                  
MANASSAS*      CLOUDY    41  28  60 NW8       30.27R                  
LEESBURG*      CLOUDY    43  32  65 NW16      30.27R                  
WINCHESTER     CLOUDY    37  27  65 NW9       30.27R                  
FRONT ROYAL*   FAIR      37  28  70 NW6       30.26S                  
LURAY*         FAIR      37  32  81 N7        30.26R                  
$$

VAZ048-049-060>072-079>083-040100-
CENTRAL AND SOUTH CENTRAL VIRGINIA
  
CITY           SKY/WX    TMP DP  RH WIND       PRES   REMARKS
RICHMOND       NOT AVBL                                               
CHESTERFIELD*  FAIR      45  19  36 W3        30.25R                  
PETERSBURG*    CLOUDY    36  32  85 CALM      30.25R                  
HANOVER        CLOUDY    39  32  76 CALM      30.25R                  
TAPPAHANNOCK*  CLOUDY    43  26  49 NW3       30.25R                  
QUINTON*       FAIR      42  34  73 CALM      30.23R                  
CHARLOTTSVILLE CLOUDY    45  28  51 N3        30.23R                  
GORDONSVILLE*  FAIR      41  31  66 NE5       30.23R                  
ORANGE*          N/A     41  30  65 N6        30.26R                  
LOUISA*        CLOUDY    46  36  66 NE9       30.23R                  
BUMPASS*       FAIR      41  32  69 CALM      30.24R                  
FARMVILLE*     PTCLDY    40  33  78 CALM      30.22F                  
CREWE*         FAIR      42  31  66 CALM      30.23F                  
FORT PICKETT*  FAIR      40  26  56 CALM      30.23S                  
CHASE CITY*    FAIR      38  32  77 CALM      30.24S                  
CLARKSVILLE*   FAIR      43  32  65 CALM      30.24S                  
SOUTH HILL*    PTCLDY    39  32  75 CALM      30.30S                  
LAWRENCEVILLE* FAIR      40  31  68 CALM      30.24S                  
EMPORIA*       CLOUDY    37  32  81 CALM      30.26S                  
$$

VAZ088>098-040100-
SOUTHEAST VIRGINIA
  
CITY           SKY/WX    TMP DP  RH WIND       PRES   REMARKS
NORFOLK        CLOUDY    48  32  53 NW5       30.23R                  
VIRGINIA BEACH CLOUDY    43  30  60 NW3       30.22R                  
NORFOLK NAVAL  MOCLDY    46  31  55 NW8       30.25R                  
WEST POINT*    CLOUDY    37  32  81 CALM      30.26R                  
SALUDA*        FAIR      45  32  61 NW5       30.23S                  
NEWPORT NEWS   CLOUDY    41  33  73 CALM      30.23S                  
LANGLEY AFB    CLOUDY    42  32  70 NW3       30.23R                  
FORT EUSTIS    PTCLDY    43  32  64 CALM      30.21R                  
WILLIAMSBURG*  PTCLDY    45  36  70 CALM      30.24S                  
HR EXEC AP*    FAIR      36  30  80 CALM      30.23R                  
FRANKLIN*      PTCLDY    39  33  81 CALM      30.25R                  
US460-WAKEFLD  CLOUDY    40  34  79 CALM      30.24S                  
$$

VAZ020-022-025-037-045-040100-
WEST CENTRAL AND SOUTHWEST VIRGINIA
  
CITY           SKY/WX    TMP DP  RH WIND       PRES   REMARKS
STAUNTON*      CLOUDY    38  28  65 N3        30.25R                  
WAYNESBORO*    FAIR      38  28  66 NW5       30.23R                  
HOT SPRINGS VA CLOUDY    27  27 100 NW15      30.14S WCI  15          
LYNCHBURG      PTCLDY    37  30  75 CALM      30.24S                  
DANVILLE       CLOUDY    42  31  64 CALM      30.25R                  
SOUTH BOSTON*  FAIR      43  28  54 CALM      30.25S                  
MARTINSVILLE   CLOUDY    41  27  56 N3        30.27S                  
ROANOKE        CLOUDY    39  27  62 NW5       30.26S                  
BLACKSBURG     CLOUDY    34  28  76 CALM      30.25S                  
DUBLIN*        PTCLDY    37  28  70 NW3       30.24S                  
MARION*        PTCLDY    35  28  75 W3        30.25S                  
HILLSVILLE*    CLOUDY    34  28  77 CALM      30.20S                  
RICHLANDS*     FAIR      33  27  81 CALM      30.23S                  
WISE*          CLOUDY    34  28  80 CALM      30.23S                  
ABINGDON*      PTCLDY    39  29  65 CALM      30.24F                  
$$

MDZ021>025-VAZ099-100-040100-
SOUTHERN MARYLAND AND THE DELMARVA PENINSULA
  
CITY           SKY/WX    TMP DP  RH WIND       PRES   REMARKS
PATUXENT RIVER CLOUDY    45  29  53 NW20      30.24R                  
BAY BRIDGE APT PTCLDY    45  30  57 W13       30.22S                  
LEONARDTOWN    CLOUDY    43  28  56 NW6G18    30.25R                  
DOVER          CLOUDY    46  32  58 W10       30.17R                  
GEORGETOWN     MOCLDY    45  31  58 W6        30.20R                  
EASTON         PTCLDY    45  30  57 W7        30.25R                  
CAMBRIDGE      PTCLDY    43  32  65 NW5       30.22R                  
SALISBURY      PTCLDY    44  30  57 W8        30.21R                  
OCEAN CITY     PTCLDY    44  30  57 NW7       30.20R                  
WALLOPS ISLAND CLOUDY    42  33  70 NW6       30.22S                  
ACCOMACK*      CLOUDY    46  33  59 NW9       30.22R                  
$$

NCZ012>017-030>032-040100-
NORTH CENTRAL AND EASTERN NORTH CAROLINA
  
CITY           SKY/WX    TMP DP  RH WIND       PRES   REMARKS
ROANOKE RAPIDS FAIR      43  32  65 N3        30.24S                  
RALEIGH        CLOUDY    45  29  53 CALM      30.25R                  
ELIZABETH CITY CLOUDY    45  32  60 NW8       30.23S                  
AHOSKIE*       PTCLDY    42  33  69 CALM      30.24S                  
EDENTON*       CLOUDY    46  37  73 CALM      30.23F                  
CURRITUCK*     CLOUDY    46  32  56 CALM      30.23F                  
KILL DEVIL HLS CLOUDY    47  35  62 NW5       30.20F                  
MANTEO         CLOUDY    48  34  58 N6        30.21F                  
CAPE HATTERAS  MOCLDY    50  34  54 N8        30.21R                  
TARBORO*       NOT AVBL                                               
GOLDSBORO      CLOUDY    47  34  60 CALM      30.22S                  
WASHINGTON     CLOUDY    46  32  58 CALM      30.24S                  
GREENVILLE     CLOUDY    45  36  70 CALM      30.24F                  
NEW BERN       CLOUDY    45  36  70 S3        30.25R                  
WILMINGTON     CLOUDY    47  36  65 NW3       30.25S                  
$$

VAZ048-040100-
ELSEWHERE
  
CITY           SKY/WX    TMP DP  RH WIND       PRES   REMARKS
HARRISBURG PA  MOCLDY    45  30  55 NW15G24   30.18S                  
BALTIMORE      MOCLDY    41  30  65 W12       30.22R                  
ANNAPOLIS      PTCLDY    45  30  55 W7        30.23R                  
ANDREWS AFB    CLOUDY    42  28  55 NW10G17   30.23R                  
PHILADELPHIA   MOCLDY    47  31  53 NW13      30.16S                  
HENDERSON NC   CLOUDY    41  29  62 CALM      30.24S                  
GREENSBORO     CLOUDY    46  29  51 CALM      30.23S                  
ROCKY MOUNT    CLOUDY    42  36  79 CALM      30.24S                  
$$

VAZ100-040100-
MARINE
  
STATION/POSITION TIME  TEMP    WIND        PRES    WAVE   SWELL
                       AIR SEA DIR/SP/G            HT/PER HT/PER
                 (UTC) (F)     (DEG/KT/KT) (MB)    (FT/S) (FT/S)
BRANDYWINE LGT   2348   47     320/ 16/ 22   N/A
CAPE MAY NJ      2348   47 47  310/ 15/ 18 1021.1R
LEWES DE         2348   46 49  280/ 11/ 13 1022.0R
OCEAN-CITY-INLET 2348   46 50  320/  8/ 10 1022.9R
WACHAPREAGUE VA  2348   45 50  280/  1/  4 1023.2R
THOMAS POINT MD  0000   44 49  290/ 14/ 15   N/A
GOOSES REEF MD   2350   46     300/ 14/ 17 1024.4R
COVE POINT MD    2348   44     320/  9/ 14 1024.3R
SOLOMONS ISLAND  2348   45 51  320/ 11/ 16   N/A
BISHOPS HEAD MD  2348   45 46  310/ 14/ 17 1024.0R
PINEY POINT MD   2348           10/  9/ 10   N/A
POTOMAC MD       2350   46     340/  8/ 10 1023.0R
CAMBRIDGE MD     2348   46 48  290/ 10/ 14 1022.7R
LEWISETTA VA     2348   46 50   10/  9/ 13 1023.5R
RAPPAHANNOCK LGT 2348          330/ 18/ 20 1023.8R
STINGRAY PT      2350   47     350/ 12/ 14 1023.8F
YORK RVR RNG VA  2348   49     350/ 12/ 13 1023.1R
YORKTOWN VA      2348   48 53  340/  4/  5 1023.4R
JAMESTOWN VA     2350   48     240/  2/  4   N/A
DOMINION TERM VA 2348   49     300/  8/  9 1023.6R
KIPTOPEKE VA     2348      51  340/ 14/ 15   N/A
CHES BAY BRIDGE  2348   50 53  350/ 12/ 13 1023.4R
CAPE HENRY VA    2348   49     330/ 13/ 16   N/A
WILLOUBY STN VA  2348   49     310/  6/  7 1024.5R
S CRANEY ISL VA  2348   47     290/  5/  7 1023.4R
CAPE HENRY BUOY  2342      56                N/A     3/ 4
1ST LANDING BUOY 2350   50                 1023.8R
CAPE CHARLES BUO 2356      55                N/A     2/ 4
OFFSHORE WE BUOY 2351      56                N/A     4/ 5
64NM E OF VA BCH 2350   51 60  330/ 21/ 25 1021.9R   7/ 6
DUCK PIER NC     2348   49 56  320/ 10/ 12 1022.6F
44100 DUCK FRF   2335      57                N/A     4/ 5
OREGON INLET NC  2348          330/  8/ 10 1022.7F
HATTERAS NC      2348   51 58  340/ 13/ 16 1022.5S
DIAMOND SHLS NC  2350   63 74  360/ 16/ 19 1022.8R   5/ 8   3/ 8
CAPE LOOKOUT NC  2300   50     350/  4/  5 1023.1S
$$
  

Return to Home page


Western Regional Climate Center, wrcc@dri.edu